Date,TemperatureHighF,TemperatureAvgF,TemperatureLowF,DewpointHighF,DewpointAvgF,DewpointLowF,HumidityHigh,HumidityAvg,HumidityLow,PressureMaxIn,PressureMinIn,WindSpeedMaxMPH,WindSpeedAvgMPH,GustSpeedMaxMPH,PrecipitationSumIn
2013-2-1,29.9,25.4,21.0,16.9,12.2,7.0,71,57,43,30.16,29.68,18,4,18,0.00
2013-2-2,29.1,23.7,16.3,19.7,12.5,9.0,91,63,46,30.27,30.07,8,2,12,0.00
2013-2-3,29.0,23.9,18.3,20.5,17.7,15.9,93,78,63,30.06,29.76,8,2,8,0.01
2013-2-4,29.7,24.7,20.9,20.0,11.8,7.7,91,59,44,29.96,29.77,14,4,16,0.00
2013-2-5,26.2,24.3,22.2,23.8,20.8,10.0,94,86,58,30.00,29.91,7,1,8,0.00
2013-2-6,36.9,30.6,24.7,28.5,21.0,3.0,96,70,39,30.33,29.91,15,3,17,0.03
2013-2-7,29.5,25.4,19.3,18.3,9.8,2.0,72,52,39,30.50,30.33,10,2,13,0.00
2013-2-8,30.8,27.2,21.7,30.1,25.1,17.0,97,92,68,30.39,29.52,40,9,40,0.00
2013-2-9,23.6,21.2,15.3,22.6,20.0,14.0,100,95,93,30.26,29.64,31,8,31,0.01
2013-2-10,33.1,22.7,12.5,32.6,21.8,11.0,99,96,92,30.45,30.26,16,2,16,0.14
2013-2-11,42.4,36.9,24.7,42.1,36.5,24.0,99,98,96,30.35,29.65,15,2,15,0.27
2013-2-12,42.7,37.3,33.3,39.5,31.2,25.9,99,80,61,29.92,29.67,17,4,20,0.00
2013-2-13,39.4,34.4,28.9,29.6,25.5,22.5,88,70,58,29.91,29.69,11,1,12,0.00
2013-2-14,40.8,33.3,28.7,31.3,27.8,24.0,100,81,54,29.99,29.70,10,2,10,0.00
2013-2-15,45.9,37.9,30.4,37.0,34.2,29.9,98,87,68,30.00,29.91,9,1,11,0.01
2013-2-16,37.6,32.6,26.7,35.0,25.6,20.0,96,76,55,29.94,29.69,14,4,14,0.03
2013-2-17,27.8,22.5,15.0,24.0,8.9,3.0,91,57,37,29.84,29.54,25,8,28,0.00
2013-2-18,31.0,22.9,13.8,13.9,8.4,4.0,65,54,39,30.20,29.85,20,5,21,0.00
2013-2-19,43.5,36.1,26.1,39.7,31.7,13.0,98,85,56,30.20,29.62,7,2,15,0.32
2013-2-20,36.0,29.0,22.1,36.0,18.1,11.0,98,64,55,29.89,29.62,19,6,19,0.00
2013-2-21,31.7,24.4,20.7,19.0,15.0,13.0,76,68,56,30.26,29.88,14,6,21,0.00
2013-2-22,36.7,30.1,20.6,29.0,23.5,15.0,86,77,61,30.39,30.25,9,2,16,0.00
2013-2-23,36.0,33.9,32.4,36.0,32.9,28.0,98,96,85,30.29,29.82,13,5,16,0.30
2013-2-24,39.9,35.1,31.7,37.0,32.5,27.5,98,90,78,29.91,29.70,15,4,17,0.01
2013-2-25,43.4,36.3,29.9,30.7,28.4,25.0,84,73,56,30.24,29.91,13,2,13,0.00
2013-2-26,40.7,35.7,31.5,33.0,30.0,28.0,95,80,63,30.30,29.99,16,3,16,0.11
2013-2-27,41.7,39.0,32.7,41.4,38.6,31.4,99,98,95,29.99,29.52,24,6,25,1.62
2013-2-28,46.2,39.1,34.0,40.1,37.2,34.0,99,93,75,29.61,29.52,7,1,7,0.03